Regional Weather Roundup
Issued by NWS Wilmington, NC

Home | Current Version | Previous Version | Text Only | Print | Product List | Glossary On
Versions: 1 2 3 4 5 6 7 8 9 10 11 12 13 14 15 16 17 18 19 20 21 22 23 24 25 26 27 28 29 30 31 32 33 34 35 36 37 38 39 40 41 42 43 44 45 46 47 48 49 50
000
ASUS42 KILM 281913
RWRILM
RWRILM
REGIONAL HOURLY WEATHER ROUNDUP
NATIONAL WEATHER SERVICE WILMINGTON NC
300 PM EDT TUE JUL 28 2015

NOTE: "FAIR" INDICATES FEW OR NO CLOUDS BELOW 12,000 FEET WITH NO
SIGNIFICANT WEATHER AND/OR OBSTRUCTIONS TO VISIBILITY.

...............WFO WILMINGTON COUNTY WARNING AREA...............

......COASTAL NC AND SC COUNTIES......

CITY           SKY/WX    TMP DP  RH WIND       PRES   REMARKS
WILMINGTON     MOSUNNY   86  70  58 E9G16     29.99F HX  90
N MYRTLE BEACH SUNNY     87  72  60 SE10      29.98F HX  93
MYRTLE BEACH   MOSUNNY   88  72  58 E14       30.00F HX  94

......INLAND NC AND SC COUNTIES.......

CITY           SKY/WX    TMP DP  RH WIND       PRES   REMARKS
LUMBERTON      SUNNY     94  67  41 MISG      29.96F HX  97
ELIZABETHTOWN  MOSUNNY   90  68  48 SE3       29.98F HX  94
WHITEVILLE     SUNNY     89  68  49 E5        29.98F HX  92
FLORENCE       SUNNY     94  65  38 SE14      29.95F HX  96
DARLINGTON     SUNNY     93  68  43 SE12G17   29.97F HX  97

....................REST OF NORTH CAROLINA......................

.........EASTERN NC.........

CITY           SKY/WX    TMP DP  RH WIND       PRES   REMARKS
CAPE HATTERAS  SUNNY     88  70  55 SE7       30.01F HX  93
JACKSONVILLE   MOSUNNY   90  66  45 SE8       29.99F HX  92
MOREHEAD CITY  SUNNY     85  72  65 SE9       30.00F HX  91
KENANSVILLE    MOSUNNY   87  68  51 SE3       30.00F HX  90
NEW BERN       SUNNY     89  66  46 SE12      30.00F HX  91
ELIZABETH CITY SUNNY     87  69  54 SE8       30.00F HX  91

.........CENTRAL NC.........

CITY           SKY/WX    TMP DP  RH WIND       PRES   REMARKS
RALEIGH DURHAM PTSUNNY   90  72  55 S10G18    29.98F HX  97
ROCKY MOUNT    MOSUNNY   90  71  53 VRB7      29.99F HX  96
ROANOKE RAPIDS NOT AVBL
FAYETTEVILLE   MOSUNNY   92  68  45 SE12      29.97F HX  96
HOFFMAN        PTSUNNY   91  68  46 SE10      29.96F HX  94

.........WESTERN NC.........

CITY           SKY/WX    TMP DP  RH WIND       PRES   REMARKS
CHARLOTTE      PTSUNNY   87  70  56 SE17      29.98F HX  92
GREENSBORO     LGT RAIN  85  71  63 SW10      29.99F HX  90
HICKORY        NOT AVBL
BOONE          NOT AVBL
ASHEVILLE      NOT AVBL

.....................REST OF SOUTH CAROLINA.....................

.........EASTERN SC.........

CITY           SKY/WX    TMP DP  RH WIND       PRES   REMARKS
CHARLESTON     MOSUNNY   90  71  53 E8        29.96F HX  96
BEAUFORT MCAS  MOSUNNY   91  75  59 SE6       29.96F HX 101
HILTON HEAD    MOSUNNY   88  77  70 NE8       29.98F HX 100

.........CENTRAL SC.........

CITY           SKY/WX    TMP DP  RH WIND       PRES   REMARKS
COLUMBIA       MOSUNNY   97  70  41 E10       29.94F HX 103
ORANGEBURG     MOSUNNY   95  68  41 E10       29.95F HX  99
SUMTER SHAW    PTSUNNY   93  66  40 NE8       29.93F HX  96

.........WESTERN SC.........

CITY           SKY/WX    TMP DP  RH WIND       PRES   REMARKS
GREENVILLE     NOT AVBL
ROCK HILL      MOSUNNY   92  73  53 SW10      29.98F HX 100
ANDERSON       PTSUNNY   93  72  50 SW3       29.98F HX 101
CLEMSON        NOT AVBL
GREENWOOD      PTSUNNY   93  70  46 S7        29.98F HX  99


...................COASTAL AND OFFSHORE REPORTS..................

................LOCAL PIERS AND NC RESERVE................


STATION/POSITION TIME  SKY/WX   TEMP    WIND        PRES    VSBY
                                AIR SEA DIR/SP/G
                 (UTC)          (F)     (DEG/KT/KT) (MB)    (MI)
JOHNY MRCER PIER 1800            82 85   70/  9/ 12 1015.7F
NC RESRV MASNBRO NOT AVBL
OCEAN CREST PIER NOT AVBL
SPRINGMAID  PIER 1800            82 86   50/ 11/ 12 1016.0F


................COASTAL AND OFFSHORE BUOYS................


STATION/POSITION TIME  SKY/WX   TEMP    WIND        PRES    VSBY
                                AIR SEA DIR/SP/G
                 (UTC)          (F)     (DEG/KT/KT) (MB)    (MI)
DIMNDSHOAL 41025 NOT AVBL
CAPE LOOKOUT     1900            81      90/ 10/ 11 1015.5F
ONSLOW BAY 41036 NOT AVBL
5 WRITEBCH 41038 NOT AVBL
MASONBORO  41110 1819               81                N/A
WVE H/P(F/S)=  4/ 4 WND WVE H/P(F/S)=  3/ 4

WILM HARBR 41108 1811               82                N/A
WVE H/P(F/S)=  4/ 7 WND WVE H/P(F/S)=  3/ 7

27WRITEBCH 41037 1800            79 82  100/ 12/ 14   N/A
FRYING PAN 41013 1850            84 84   70/ 10/ 12 1015.2F
WVE H/P(F/S)=  5/ 7 WND WVE H/P(F/S)=  3/ 5 SWL H/P/D(F/S/D)=  3/170/ 7

SUNST NRSH 41024 NOT AVBL
CAPRS NRSH 41029 NOT AVBL
EDISTO     41004 1850            84 85   60/ 12/ 14 1013.9F
WVE H/P(F/S)=  3/ 7 WND WVE H/P(F/S)=  2/ 5 SWL H/P/D(F/S/D)=  2/ 7



..........OFFSHORE BUOYS BEYOND 100 NM OFFSHORE...........
.....IN A TRIANGLE---HAT TO BERMUDA TO BAHAMAS TO HAT.....


STATION/POSITION TIME  SKY/WX   TEMP    WIND        PRES    VSBY
                                AIR SEA DIR/SP/G
                 (UTC)          (F)     (DEG/KT/KT) (MB)    (MI)
150E HAT   41001 1800            81 83   90/  6/ 10 1016.3S
W BERMUDA  41048 1850            78 81  270/ 14/ 16 1016.3F
WVE H/P(F/S)=  4/ 5 WND WVE H/P(F/S)=  3/ 5 SWL H/P/D(F/S/D)=  2/110/10

ATLANTIC S 41049 1850            84 87  230/  8/ 10 1019.3F
WVE H/P(F/S)=  3/10 SWL H/P/D(F/S/D)=  3/ 80/10

E BAHAMAS  41046 1850            84 85  120/  6/  8 1018.5F
WVE H/P(F/S)=  3/ 8 WND WVE H/P(F/S)=  2/ 4 SWL H/P/D(F/S/D)=  3/130/ 8

NE BAHAMAS 41047 1850            84 85  220/ 12/ 14 1017.8F
WVE H/P(F/S)=  4/ 6 WND WVE H/P(F/S)=  3/ 5 SWL H/P/D(F/S/D)=  2/180/ 6

120E CANVRL41010 1820            84 84  230/ 14/ 16 1015.6F

END


USA.gov is the U.S. government's official web portal to all federal, state and local government web resources and services.